Flag for Pakistan Weather past 2 weeks in Khushab, Pakistan

Now
43 °F

Fog.


Feels Like: 43 °F
Forecast: 37 / 64 °F
Wind: No wind

Location: Islamabad Airport

Current Time: Jan 29, 2015 at 5:48:05 AM

Latest Report: Jan 29, 2015 at 5:00 AM


Visibility: 2 mi

Pressure: 30.04 "Hg

Humidity: 87%

Dew point: 39 °F

Location of KhushabLocation

Historic Weather in Khushab — Graph

°F

Khushab temperature yesterday

Maximum temperature yesterday: 61 °F (at 3:00 PM)
Minimum temperature yesterday: 36 °F (at 7:00 AM)
Average temperature yesterday: 50 °F

Past Weeks' High & Low Weather Summary

 TemperatureHumidityPressure
High68 °F (Jan 16, 3:00 PM)100% (Jan 21, 8:00 AM)30.27 "Hg (Jan 21, 8:00 AM)
Low36 °F (Jan 28, 7:00 AM)28% (Jan 17, 4:00 PM)29.98 "Hg (Jan 28, 4:00 PM)
Average52 °F73%30.14 "Hg
* Reported Jan 14 7:00 AM — Jan 29 5:00 AM, Khushab, Weather by CustomWeather, © 2014

Note: Actual official high and low records may vary slightly from our data, if they occured in-between our weather recording intervals... More about our weather records

Advertising

Khushab weather history for previous 24 hours

 ConditionsComfort  
Time TempWeatherWind HumidityBarometerVisibility
5:00 AM
Jan 29
43 °FFog.No wind87%30.04 "Hg2 mi
4:00 AM43 °FFog.No wind87%30.04 "Hg2 mi
3:00 AM45 °FFog.No wind81%30.04 "Hg2 mi
2:00 AM45 °FPassing clouds.No wind76%30.07 "Hg2 mi
1:00 AM46 °FPassing clouds.No wind71%30.07 "Hg2 mi
12:00 AM46 °FPassing clouds.No wind71%30.07 "Hg2 mi
11:00 PM
Jan 28
48 °FPassing clouds.7 mph76%30.07 "Hg3 mi
10:00 PM50 °FPassing clouds.12 mph71%30.04 "Hg4 mi
9:00 PM52 °FPassing clouds.7 mph62%30.04 "Hg4 mi
8:00 PM52 °FPassing clouds.18 mph67%30.04 "Hg4 mi
7:00 PM54 °FPassing clouds.18 mph67%30.01 "Hg4 mi
6:00 PM55 °FPassing clouds.18 mph59%30.01 "Hg4 mi
5:00 PM57 °FScattered clouds.18 mph51%30.01 "Hg4 mi
4:00 PM59 °FScattered clouds.18 mph48%29.98 "Hg4 mi
3:00 PM61 °FPassing clouds.18 mph39%30.01 "Hg4 mi
2:00 PM59 °FHaze.21 mph45%30.04 "Hg5 mi
1:00 PM59 °FSunny.21 mph48%30.07 "Hg5 mi
12:00 PM59 °FSunny.14 mph48%30.09 "Hg4 mi
11:00 AM55 °FSunny.9 mph44%30.12 "Hg2 mi
10:00 AM48 °FSunny.No wind71%30.12 "Hg1 mi
9:00 AM41 °FSunny.No wind76%30.12 "Hg2 mi
7:00 AM36 °FFog.No wind81%30.09 "Hg2 mi
6:00 AM37 °FFog.No wind87%30.09 "Hg2 mi
5:00 AM37 °FFog.No wind87%30.09 "Hg2 mi
Weather by CustomWeather, © 2014

See weather overviewHow to use our weather pages